[[{"header":{"parameterUnit":"m.s-1","parameterCategory":1,"la1":30.2991,"la2":30.254,"lo1":-89.0895,"lo2":-89.0444,"dy":0.0017,"dx":0.0017,"nx":28,"ny":28,"refTime":"2024-05-16T03:00:00:Z","depth":0,"parameterNumber":2,"parameterNumberName":"U-component_of_WINDS"},"data":[0,0,0,0,0,0,0,0,0,0,0,0,0,0,0,0,0,0,0,0,0,0,0,0,0,0,0,0,0,0,0,0,0,0,0,0,0,0,0,0,0,0,0,0,0,0,0,0,0,0,0,0,0,0,0,0,0,0,1.316,1.316,0,1.3134,1.3133,1.3133,1.3091,1.309,1.309,1.3089,1.3061,1.3061,1.3061,0,0,0,0,0,0,0,0,0,0,0,0,0,1.3176,1.3176,1.316,1.316,1.316,1.3134,1.3133,1.3133,1.3091,1.309,1.3089,1.3089,1.3061,1.3061,1.3061,0,0,0,0,0,0,0,0,0,0,0,0,0,1.3161,1.3176,1.316,1.3136,1.3133,1.3134,1.3133,1.3133,1.3091,1.309,1.3089,1.3088,1.3061,1.3061,1.3061,1.3084,0,0,1.3061,1.3061,0,0,0,0,0,0,0,0,1.3162,1.3161,1.314,1.3137,1.3135,1.3115,1.3129,1.3116,1.3092,1.3107,1.3089,1.3088,1.308,1.3078,1.3076,1.3082,1.3081,1.3061,1.3061,1.3061,1.3061,0,0,0,0,0,0,0,1.3163,1.3162,1.315,1.3139,1.3136,1.3126,1.3123,1.3126,1.31,1.3106,1.3103,1.31,1.3078,1.3076,1.3075,1.3081,1.3061,1.3061,1.3061,1.3061,1.3107,1.3108,0,0,0,0,0,0,1.3168,1.3163,1.3151,1.3149,1.3146,1.3127,1.3123,1.3122,1.31,1.3096,1.3101,1.3098,1.3077,1.3075,1.3074,1.31,1.3061,1.3061,1.3061,1.3105,1.3107,1.3108,0,0,0,0,0,0,1.3168,1.3167,1.3152,1.3155,1.3152,1.3128,1.3127,1.3122,1.312,1.3097,1.3092,1.3103,1.3076,1.3074,1.3082,1.3098,1.3061,1.3061,1.3104,1.3106,1.3107,1.3152,0,0,0,0,0,0,1.3169,1.3168,1.3175,1.3156,1.3152,1.316,1.3128,1.3122,1.312,1.3116,1.3097,1.3093,1.3075,1.3082,1.3082,1.3098,1.3061,1.3102,1.3105,1.3107,1.3149,1.3155,1.316,0,0,0,0,0,1.317,1.3188,1.3176,1.3175,1.3162,1.3161,1.3159,1.3137,1.3121,1.3129,1.3115,1.3094,1.3097,1.3084,1.3083,1.3099,1.3101,1.3104,1.3107,1.3146,1.3154,1.316,0,0,0,0,0,0,1.321,1.3185,1.3171,1.3184,1.3175,1.3154,1.3163,1.3146,1.3141,1.3138,1.3111,1.3107,1.3119,1.3109,1.3095,1.312,1.3096,1.3099,1.3126,1.3133,1.3138,1.3141,1.3061,0,0,0,0,0,1.3221,1.3223,1.32,1.3214,1.321,1.3188,1.3187,1.3171,1.3161,1.3156,1.3142,1.3133,1.3132,1.3132,1.3129,1.3147,1.3143,1.3158,1.3163,1.3168,1.3171,1.3182,1.3188,1.3117,1.3117,1.3117,0,0,1.3243,1.3229,1.3232,1.3222,1.3213,1.3216,1.3185,1.3189,1.3191,1.3157,1.3164,1.3154,1.3142,1.3156,1.3161,1.3148,1.319,1.3172,1.3176,1.3176,1.3185,1.3192,1.3198,1.3119,1.3119,1.3119,0,0,1.3284,1.3273,1.3284,1.3276,1.3264,1.3249,1.3252,1.3234,1.3226,1.3233,1.3208,1.321,1.3208,1.3201,1.3198,1.3238,1.322,1.3238,1.3268,1.3279,1.3284,1.3289,1.3305,1.3311,1.3241,1.3241,1.3241,0,1.3312,1.3315,1.3292,1.3298,1.3295,1.3265,1.3277,1.327,1.3257,1.3256,1.3242,1.3241,1.323,1.3243,1.3253,1.3251,1.3254,1.324,1.3285,1.329,1.3294,1.3309,1.3315,1.3244,1.3243,1.3243,1.3243,0,1.3352,1.3355,1.3365,1.3354,1.3352,1.3361,1.334,1.3341,1.3326,1.3313,1.3321,1.3308,1.3303,1.3305,1.3289,1.3316,1.3309,1.329,1.3265,1.3304,1.3318,1.3323,1.3247,1.3246,1.3246,1.3245,0,0,1.3417,1.3395,1.3399,1.3394,1.3379,1.3381,1.3389,1.3385,1.3387,1.3379,1.3386,1.3386,1.337,1.3366,1.335,1.3359,1.3394,1.334,1.3339,1.3352,1.3424,1.3439,1.3446,1.3382,1.3383,1.3383,1.3426,0,1.3456,1.3468,1.3448,1.3466,1.3469,1.3441,1.3448,1.344,1.3429,1.343,1.3417,1.3418,1.3396,1.3394,1.3401,1.3388,1.3409,1.3385,1.3389,1.3389,1.3394,1.3453,1.3468,1.3509,1.3431,1.3432,1.3432,0,1.3503,1.3499,1.3516,1.3502,1.3502,1.3509,1.3505,1.3506,1.3497,1.3488,1.3484,1.3466,1.3473,1.3449,1.346,1.3445,1.3445,1.3439,1.344,1.344,1.3414,1.3456,1.3521,1.3528,1.344,1.344,1.3439,0,1.355,1.3549,1.356,1.3557,1.354,1.3546,1.3539,1.3528,1.3528,1.3524,1.3524,1.3521,1.3519,1.3518,1.3499,1.3483,1.3513,1.3487,1.3507,1.3508,1.3515,1.3515,1.3582,1.3514,1.3514,1.3513,1.3513,0,1.3596,1.3609,1.3582,1.3589,1.3602,1.3579,1.3593,1.3584,1.3575,1.358,1.3556,1.3561,1.3536,1.3539,1.3525,1.3537,1.3536,1.353,1.3526,1.3533,1.3534,1.3533,1.3531,1.3515,1.3515,1.3514,1.3514,0,1.3652,1.3634,1.3645,1.3628,1.3624,1.3635,1.3621,1.3627,1.3615,1.3622,1.3622,1.3602,1.3605,1.3586,1.3585,1.3575,1.3595,1.3586,1.3599,1.3596,1.3618,1.3617,1.3688,1.3697,1.3622,1.3622,1.3623,0,1.3683,1.3692,1.3677,1.3679,1.3673,1.3676,1.3676,1.3654,1.3655,1.3647,1.3654,1.3655,1.3654,1.366,1.3646,1.3645,1.3636,1.3661,1.3636,1.3643,1.3639,1.3639,1.364,1.3667,1.3668,1.3669,1.3669,0,1.374,1.3732,1.3732,1.373,1.3731,1.3728,1.3724,1.3727,1.3703,1.3706,1.3708,1.3708,1.3707,1.3709,1.3706,1.3699,1.3681,1.3677,1.3682,1.369,1.3697,1.3695,1.3614,1.3676,1.3675,1.3675,1.3674,1.3674,1.3785,1.3793,1.3784,1.3786,1.3781,1.3778,1.3783,1.3772,1.3774,1.3772,1.3759,1.3765,1.3757,1.3751,1.3746,1.3751,1.3739,1.3746,1.3747,1.375,1.3755,1.3696,1.375,1.375,1.375,1.3749,1.3749,0,1.3843,1.3836,1.3838,1.3834,1.3836,1.3818,1.3813,1.3816,1.3821,1.3815,1.3816,1.382,1.3822,1.3808,1.3809,1.3815,1.3807,1.3816,1.3816,1.3815,1.3764,1.3761,1.3823,1.3823,1.3823,1.3823,1.3823,1.3823,1.3873,1.3886,1.3876,1.3886,1.3879,1.3885,1.3884,1.3881,1.3877,1.3883,1.3884,1.3876,1.3867,1.3867,1.3869,1.3865,1.3867,1.3879,1.3873,1.3825,1.3818,1.3812,1.3808,1.3879,1.3879,1.3923,1.3923,1.3924]},{"header":{"parameterUnit":"m.s-1","parameterCategory":1,"la1":30.2991,"la2":30.254,"lo1":-89.0895,"lo2":-89.0444,"dy":0.0017,"dx":0.0017,"nx":28,"ny":28,"refTime":"2024-05-16T03:00:00:Z","depth":0,"parameterNumber":3,"parameterNumberName":"V-component_of_WINDS"},"data":[0,0,0,0,0,0,0,0,0,0,0,0,0,0,0,0,0,0,0,0,0,0,0,0,0,0,0,0,0,0,0,0,0,0,0,0,0,0,0,0,0,0,0,0,0,0,0,0,0,0,0,0,0,0,0,0,0,0,-2.0344,-2.0344,0,-2.0371,-2.0372,-2.0372,-2.0401,-2.0401,-2.0401,-2.0402,-2.0428,-2.0428,-2.0428,0,0,0,0,0,0,0,0,0,0,0,0,0,-2.0315,-2.0315,-2.0344,-2.0344,-2.0345,-2.0371,-2.0372,-2.0372,-2.0401,-2.0401,-2.0402,-2.0402,-2.0428,-2.0428,-2.0428,0,0,0,0,0,0,0,0,0,0,0,0,0,-2.0333,-2.0315,-2.0344,-2.0362,-2.0364,-2.0371,-2.0372,-2.0372,-2.04,-2.0401,-2.0402,-2.0402,-2.0428,-2.0428,-2.0428,-2.0419,0,0,-2.043,-2.043,0,0,0,0,0,0,0,0,-2.0332,-2.0334,-2.0359,-2.0361,-2.0363,-2.0383,-2.0371,-2.0388,-2.04,-2.0387,-2.0402,-2.0403,-2.0412,-2.0414,-2.0418,-2.042,-2.0421,-2.043,-2.043,-2.043,-2.0431,0,0,0,0,0,0,0,-2.0331,-2.0333,-2.0355,-2.036,-2.0362,-2.0368,-2.0372,-2.0374,-2.0396,-2.0388,-2.039,-2.0393,-2.0413,-2.0417,-2.0419,-2.0422,-2.043,-2.043,-2.0431,-2.0431,-2.0416,-2.0416,0,0,0,0,0,0,-2.0327,-2.0332,-2.0354,-2.0356,-2.0349,-2.0368,-2.0372,-2.0376,-2.0396,-2.0399,-2.0392,-2.0394,-2.0416,-2.0418,-2.042,-2.0409,-2.043,-2.0431,-2.0431,-2.0417,-2.0416,-2.0416,0,0,0,0,0,0,-2.0326,-2.0329,-2.0353,-2.0344,-2.0348,-2.0368,-2.0373,-2.0376,-2.038,-2.0399,-2.0403,-2.0392,-2.0417,-2.0419,-2.0419,-2.041,-2.0431,-2.0431,-2.0418,-2.0417,-2.0416,-2.0387,0,0,0,0,0,0,-2.0325,-2.0328,-2.0325,-2.0344,-2.0348,-2.0352,-2.0372,-2.0376,-2.0381,-2.0384,-2.04,-2.0403,-2.0417,-2.0418,-2.0419,-2.0411,-2.0432,-2.0419,-2.0417,-2.0416,-2.0389,-2.0385,-2.0382,0,0,0,0,0,-2.0324,-2.0316,-2.0325,-2.0328,-2.0345,-2.0351,-2.0354,-2.0371,-2.038,-2.0377,-2.0389,-2.0403,-2.0411,-2.0418,-2.0419,-2.0411,-2.0419,-2.0418,-2.0416,-2.0391,-2.0386,-2.0382,0,0,0,0,0,0,-2.0295,-2.0319,-2.0329,-2.0327,-2.0337,-2.0356,-2.0353,-2.0366,-2.0372,-2.0375,-2.0395,-2.0398,-2.0395,-2.0403,-2.041,-2.0402,-2.0417,-2.0416,-2.0397,-2.0393,-2.039,-2.0387,-2.0432,0,0,0,0,0,-2.0289,-2.0293,-2.0313,-2.0309,-2.0314,-2.0332,-2.0336,-2.0348,-2.0359,-2.0363,-2.0375,-2.0385,-2.0389,-2.0392,-2.0397,-2.0391,-2.0394,-2.0386,-2.0383,-2.038,-2.0378,-2.0374,-2.037,-2.0411,-2.0411,-2.0411,0,0,-2.0275,-2.0289,-2.029,-2.0304,-2.0313,-2.0315,-2.0336,-2.0338,-2.0339,-2.0363,-2.0363,-2.0373,-2.0385,-2.0381,-2.038,-2.0388,-2.0368,-2.0378,-2.0376,-2.0375,-2.0372,-2.0368,-2.0365,-2.041,-2.041,-2.041,0,0,-2.0252,-2.0263,-2.026,-2.0269,-2.0283,-2.0295,-2.0294,-2.0312,-2.0319,-2.032,-2.0337,-2.0339,-2.0347,-2.0355,-2.0359,-2.0338,-2.035,-2.0339,-2.0321,-2.0317,-2.0313,-2.0311,-2.0301,-2.0298,-2.0338,-2.0338,-2.0338,0,-2.0233,-2.0238,-2.0257,-2.0258,-2.0263,-2.0285,-2.0282,-2.0289,-2.0304,-2.0306,-2.0315,-2.0325,-2.0335,-2.0332,-2.0327,-2.0331,-2.0329,-2.0337,-2.0313,-2.031,-2.0308,-2.0299,-2.0296,-2.0336,-2.0336,-2.0336,-2.0337,0,-2.0213,-2.0216,-2.0212,-2.0226,-2.0231,-2.023,-2.0248,-2.025,-2.0262,-2.0273,-2.0273,-2.0286,-2.0293,-2.0294,-2.0305,-2.0293,-2.0297,-2.0309,-2.0324,-2.0302,-2.0294,-2.0291,-2.0334,-2.0334,-2.0335,-2.0335,0,0,-2.0171,-2.0195,-2.0194,-2.0199,-2.0216,-2.0219,-2.0218,-2.0226,-2.0227,-2.0237,-2.0236,-2.0242,-2.0253,-2.0258,-2.027,-2.0267,-2.0247,-2.0279,-2.028,-2.0271,-2.0232,-2.0222,-2.0218,-2.0256,-2.0256,-2.0255,-2.0231,0,-2.0149,-2.015,-2.0167,-2.0162,-2.0165,-2.0186,-2.0185,-2.0195,-2.0205,-2.0208,-2.022,-2.0223,-2.0238,-2.0241,-2.0239,-2.025,-2.0239,-2.0252,-2.0254,-2.0254,-2.0249,-2.0214,-2.0204,-2.018,-2.0228,-2.0228,-2.0227,0,-2.0123,-2.0131,-2.0127,-2.0143,-2.0144,-2.0143,-2.0152,-2.0155,-2.0166,-2.0174,-2.0179,-2.0194,-2.0193,-2.0208,-2.0207,-2.0215,-2.0217,-2.0223,-2.0222,-2.0222,-2.0238,-2.0211,-2.0173,-2.0169,-2.0223,-2.0223,-2.0224,0,-2.0091,-2.01,-2.0099,-2.0104,-2.0123,-2.0121,-2.0129,-2.0141,-2.0144,-2.0151,-2.0154,-2.016,-2.0164,-2.0168,-2.0184,-2.0193,-2.018,-2.0197,-2.0185,-2.0185,-2.018,-2.018,-2.014,-2.0184,-2.0184,-2.0184,-2.0184,0,-2.0063,-2.0059,-2.0084,-2.0083,-2.0079,-2.0099,-2.0094,-2.0104,-2.0114,-2.0114,-2.0133,-2.0133,-2.0154,-2.0156,-2.0168,-2.0164,-2.0166,-2.0171,-2.0174,-2.0168,-2.0167,-2.0169,-2.017,-2.0183,-2.0183,-2.0184,-2.0184,0,-2.0026,-2.0043,-2.0042,-2.006,-2.0065,-2.0061,-2.0076,-2.0075,-2.0087,-2.0087,-2.0088,-2.0106,-2.0109,-2.0125,-2.0132,-2.014,-2.0132,-2.0139,-2.0128,-2.0129,-2.0116,-2.0116,-2.0074,-2.0069,-2.0118,-2.0117,-2.0117,0,-2.0006,-2.0004,-2.0022,-2.0024,-2.0031,-2.0033,-2.0037,-2.0056,-2.0059,-2.0071,-2.0068,-2.0073,-2.0077,-2.0081,-2.0094,-2.0099,-2.0106,-2.0091,-2.0106,-2.01,-2.0103,-2.0102,-2.0101,-2.0087,-2.0086,-2.0085,-2.0085,0,-1.9969,-1.9978,-1.9983,-1.999,-1.9994,-2.0,-2.0008,-2.0008,-2.0029,-2.0031,-2.0035,-2.0038,-2.0045,-2.0049,-2.0056,-2.0064,-2.0077,-2.008,-2.0077,-2.0071,-2.0064,-2.0065,-2.0116,-2.0081,-2.0081,-2.0081,-2.0082,-2.0082,-1.9939,-1.9938,-1.995,-1.9954,-1.9962,-1.9968,-1.9968,-1.998,-1.9983,-1.999,-2.0002,-2.0003,-2.0013,-2.0025,-2.0031,-2.0032,-2.004,-2.0036,-2.0035,-2.0033,-2.0029,-2.0065,-2.0033,-2.0033,-2.0034,-2.0034,-2.0034,0,-1.9902,-1.9911,-1.9914,-1.9924,-1.9927,-1.9941,-1.995,-1.9951,-1.9953,-1.9962,-1.9966,-1.9969,-1.9973,-1.9987,-1.9991,-1.9989,-1.9996,-1.999,-1.9989,-1.999,-2.0023,-2.0024,-1.9985,-1.9985,-1.9985,-1.9985,-1.9985,-1.9985,-1.9882,-1.988,-1.9889,-1.989,-1.9899,-1.9901,-1.9904,-1.991,-1.9917,-1.992,-1.9923,-1.9933,-1.9943,-1.9949,-1.9952,-1.9956,-1.9956,-1.9948,-1.9954,-1.9984,-1.9988,-1.9993,-1.9994,-1.9948,-1.9948,-1.9921,-1.992,-1.992]}]]